sat.trackr.live / text

‹ back to catalog

STARLINK-35819

NORAD 66285 · 2025-247W

PAYLOAD ACTIVE UNKNOWN

§ Identity

Operator
Country
US
Launch date
2025-10-31
Launch site
AFWTR
Launch vehicle
Mass (kg)
RCS (m²)

Purposes: comms

External: N2YO · Heavens-Above · Gunter

§ Orbital elements

Epoch: 2026-09-20T14:10:41.215584Z

Period
93.85 min
Inclination
53.1602°
Eccentricity
0.0000925
Mean motion
15.34416091 rev/d
Perigee alt
462.0 km
Apogee alt
463.3 km
Semi-major
6,840.8 km
B*
4.2627e-4
RAAN
3.3254°
Arg perigee
92.7106°
Mean anomaly
267.4003°
Rev number
5,091

§ Raw data

STARLINK-358191 66285U 25247W   26263.59075481  .00014060  00000+0  42627-3 0  99992 66285  53.1602   3.3254 0000925  92.7106 267.4003 15.34416091 50915

JSON: /api/v1/satellites/66285 · /tle

For live sub-satellite position, see the globe view (requires WebGL).

§ Visibility from observer

Set your observer location to see the next 7 days of passes ≥ 10°. The values pass through the URL so the page stays shareable.

No JS? Fill the form by hand. The geolocation button needs JavaScript.